Find Starlink 32953

NORAD ID: 63561 Int'l Des: 2025-075 Owner: SPXS Country: US Constellation: starlink operational
LEOCIRCULAR

当前视图

正在加载3D地球...

About Starlink 32953

Starlink 32953 (NORAD 63561) is a starlink constellation satellite (v2 mini) launched Apr 13, 2025 by SPXS of US. It operates in LEO, CIRCULAR orbit with a mass of 730.00 kg.

关于 Starlink 32953

正在加载描述...

即将过境

Passes for default location (London). Set your location on the main map for personalized predictions.

高度历史

Loading altitude history...

两行轨道根数

1 63561U 25075P 26167.21579778 .00015728 00000-0 57930-3 0 9998
2 63561 43.0040 74.3863 0002421 273.6747 86.3828 15.27610967 66999
Epoch: Jun 16, 2026 • Age: 47 hours

当前状态

高度 482.6 km
速度 7.63 km/s
星下点 -4.66°S, 88.52°E
发射日期 Apr 13, 2025
运行时间 1.1 years
类型 internet

技术详情

分类 Payload
质量 730.00 kg
干质量 700.00 kg
总质量 730.00 kg
长度 0.30 m
直径 4.10 m
跨度 29.00 m
形状 Box + pan
制造商 SPXS
平台类型 Starlink V2M
阶段状态 In Orbit
所有者/国家 SPXS/US

Most Searched